Land O' Lakes, WI

3:01 PM CDT on July 23, 2017 (GMT -0500)
Kings Land O'Lakes

Weather History for KLNL - June, 2014

Change the Weather History Date:

Saturday, June 28, 2014

  Actual Average (KEGV) Record (KEGV)
Temperature  
Mean Temperature 76 °F -  
Max Temperature 86 °F 76 °F 88 °F (1991)
Min Temperature 67 °F 56 °F 41 °F (2003)
Cooling Degree Days 12    
Growing Degree Days 26 (Base 50)    
Moisture  
Dew Point 66 °F    
Average Humidity 74    
Maximum Humidity 96    
Minimum Humidity 47    
Precipitation  
Precipitation 0.08 in - - ()
Sea Level Pressure  
Sea Level Pressure 29.92 in    
Wind  
Wind Speed 8 mph (SSE)    
Max Wind Speed 18 mph    
Max Gust Speed 25 mph    
Visibility 9 miles    
Events Rain , Thunderstorm    
Averages and records for this station are not official NWS values.
T = Trace of Precipitation, MM = Missing Value Source: NWS Daily Summary

Daily Weather History Graph

Daily Weather History Graph

Search for Another Location

Airport or City:

Trip Planner

Search our weather history database for the weather conditions in past years. The results will help you decide how hot, cold, wet, or windy it might be!

Date:

Astronomy

Jun. 28, 2014 Rise Set
Actual Time 5:07 AM CDT 8:52 PM CDT
Civil Twilight 4:29 AM CDT 9:30 PM CDT
Nautical Twilight 3:37 AM CDT 10:22 PM CDT
Astronomical Twilight 2:24 AM CDT 11:35 PM CDT
Moon 6:38 AM CDT (6/28) 9:28 PM CDT (6/28)
Length of Visible Light 17h 01m
Length of Day
15h 44m
New Moon, 2% of the Moon is Illuminated
Jun 28
New Moon
Jul 5
First Quarter
Jul 12
Full
Jul 18
Last Quarter
Jul 26
New

Hourly Weather History & Observations

Time (CDT) Temp. Heat Index Dew Point Humidity Pressure Visibility Wind Dir Wind Speed Gust Speed Precip Events Conditions
12:15 AM 68.4 °F - 66.2 °F 93% 29.97 in 10.0 mi SSE 5.8 mph - 0.01 in   Overcast
12:35 AM 68.2 °F - 66.2 °F 93% 29.97 in 7.0 mi South 3.5 mph - 0.01 in   Overcast
12:55 AM 68.0 °F - 66.2 °F 94% 29.97 in 4.0 mi SSE 5.8 mph - 0.07 in Rain Heavy Rain
1:15 AM 68.4 °F - 66.7 °F 95% 29.98 in 10.0 mi South 8.1 mph - N/A Rain Light Rain
1:35 AM 68.2 °F - 66.4 °F 94% 29.97 in 7.0 mi SSE 5.8 mph - N/A   Scattered Clouds
1:55 AM 67.8 °F - 66.2 °F 95% 29.97 in 7.0 mi SSE 3.5 mph - N/A   Mostly Cloudy
2:15 AM 67.5 °F - 66.2 °F 96% 29.96 in 7.0 mi SSE 4.6 mph - N/A   Mostly Cloudy
2:35 AM 67.3 °F - 66.2 °F 96% 29.96 in 7.0 mi South 4.6 mph - N/A   Mostly Cloudy
2:55 AM 67.5 °F - 66.2 °F 96% 29.96 in 7.0 mi South 4.6 mph - N/A   Overcast
3:15 AM 67.5 °F - 66.2 °F 96% 29.96 in 7.0 mi South 5.8 mph - N/A   Mostly Cloudy
3:35 AM 67.5 °F - 66.2 °F 96% 29.96 in 7.0 mi South 4.6 mph - N/A   Scattered Clouds
4:15 AM 67.6 °F - 66.4 °F 96% 29.96 in 7.0 mi South 4.6 mph - N/A   Clear
4:35 AM 67.6 °F - 66.4 °F 96% 29.96 in 7.0 mi SSE 6.9 mph - N/A   Scattered Clouds
4:55 AM 67.8 °F - 66.4 °F 95% 29.95 in 7.0 mi SSE 8.1 mph - N/A   Clear
5:15 AM 67.6 °F - 66.4 °F 96% 29.95 in 5.0 mi SSE 5.8 mph - N/A   Scattered Clouds
5:35 AM 67.8 °F - 66.4 °F 95% 29.95 in 5.0 mi South 5.8 mph - N/A   Scattered Clouds
6:15 AM 68.0 °F - 66.6 °F 95% 29.96 in 5.0 mi SSE 4.6 mph - N/A   Scattered Clouds
6:35 AM 68.9 °F - 67.1 °F 94% 29.97 in 7.0 mi SSE 4.6 mph - N/A   Scattered Clouds
6:55 AM 68.9 °F - 66.7 °F 93% 29.97 in 7.0 mi SSE 3.5 mph - N/A   Scattered Clouds
7:15 AM 68.9 °F - 67.1 °F 94% 29.97 in 7.0 mi SSE 6.9 mph - N/A   Scattered Clouds
7:35 AM 69.3 °F - 67.1 °F 93% 29.97 in 7.0 mi South 6.9 mph - N/A   Scattered Clouds
7:55 AM 70.7 °F - 67.5 °F 89% 29.98 in 10.0 mi South 6.9 mph - N/A   Scattered Clouds
8:15 AM 71.6 °F - 67.3 °F 86% 29.98 in 10.0 mi South 6.9 mph - N/A   Clear
8:35 AM 72.9 °F - 66.9 °F 82% 29.97 in 10.0 mi South 8.1 mph - N/A   Clear
8:55 AM 72.9 °F - 67.1 °F 82% 29.97 in 10.0 mi SSE 8.1 mph - N/A   Clear
9:15 AM 75.2 °F - 67.1 °F 76% 29.96 in 10.0 mi South 11.5 mph - N/A   Clear
9:35 AM 77.0 °F - 67.1 °F 71% 29.96 in 10.0 mi South 10.4 mph 18.4 mph N/A   Scattered Clouds
9:55 AM 77.4 °F - 66.7 °F 70% 29.96 in 10.0 mi South 8.1 mph 18.4 mph N/A   Scattered Clouds
10:15 AM 78.1 °F - 66.4 °F 67% 29.96 in 10.0 mi South 12.7 mph 20.7 mph 0.01 in   Clear
10:35 AM 78.6 °F - 66.7 °F 67% 29.96 in 10.0 mi South 10.4 mph 19.6 mph 0.01 in   Scattered Clouds
10:55 AM 79.9 °F - 66.6 °F 64% 29.96 in 10.0 mi South 15.0 mph 23.0 mph 0.01 in   Scattered Clouds
11:15 AM 80.1 °F 82.3 °F 66.9 °F 64% 29.96 in 10.0 mi South 12.7 mph 20.7 mph N/A   Mostly Cloudy
11:35 AM 79.9 °F - 67.3 °F 65% 29.96 in 10.0 mi South 10.4 mph 18.4 mph N/A   Mostly Cloudy
11:55 AM 81.0 °F 83.4 °F 67.1 °F 63% 29.96 in 10.0 mi SSW 9.2 mph 18.4 mph N/A   Mostly Cloudy
12:15 PM 81.5 °F 83.9 °F 67.1 °F 61% 29.95 in 10.0 mi SSE 11.5 mph 18.4 mph N/A   Mostly Cloudy
12:35 PM 82.4 °F 84.6 °F 66.2 °F 58% 29.95 in 10.0 mi South 11.5 mph 21.9 mph N/A   Mostly Cloudy
12:55 PM 82.4 °F 84.4 °F 65.8 °F 57% 29.94 in 10.0 mi South 13.8 mph 23.0 mph N/A   Scattered Clouds
1:15 PM 82.9 °F 85.0 °F 65.7 °F 56% 29.93 in 10.0 mi South 11.5 mph 21.9 mph N/A   Scattered Clouds
1:35 PM 82.8 °F 84.7 °F 65.8 °F 56% 29.93 in 10.0 mi SSE 13.8 mph 23.0 mph N/A   Mostly Cloudy
1:55 PM 83.5 °F 85.1 °F 64.9 °F 53% 29.93 in 10.0 mi South 13.8 mph 21.9 mph N/A   Mostly Cloudy
2:15 PM 83.3 °F 85.1 °F 65.3 °F 54% 29.92 in 10.0 mi South 9.2 mph 20.7 mph N/A   Scattered Clouds
2:35 PM 84.4 °F 85.9 °F 64.4 °F 51% 29.91 in 10.0 mi SSE 12.7 mph 24.2 mph N/A   Scattered Clouds
2:55 PM 85.1 °F 86.6 °F 64.6 °F 50% 29.91 in 10.0 mi SSE 18.4 mph 24.2 mph N/A   Scattered Clouds
3:15 PM 85.3 °F 86.1 °F 63.0 °F 47% 29.91 in 10.0 mi South 16.1 mph 21.9 mph N/A   Scattered Clouds
3:35 PM 86.0 °F 87.1 °F 63.7 °F 47% 29.91 in 10.0 mi South 13.8 mph 25.3 mph N/A   Scattered Clouds
3:55 PM 85.5 °F 86.6 °F 63.7 °F 48% 29.90 in 10.0 mi SSE 10.4 mph 21.9 mph N/A   Scattered Clouds
4:15 PM 83.3 °F 84.8 °F 64.6 °F 53% 29.89 in 10.0 mi SSE 15.0 mph 24.2 mph N/A   Scattered Clouds
4:35 PM 84.4 °F 86.3 °F 65.5 °F 53% 29.89 in 10.0 mi SSE 17.3 mph 24.2 mph N/A   Scattered Clouds
4:55 PM 84.7 °F 86.8 °F 65.8 °F 53% 29.89 in 10.0 mi South 13.8 mph 19.6 mph N/A   Scattered Clouds
5:15 PM 84.4 °F 86.3 °F 65.5 °F 53% 29.87 in 10.0 mi SSE 11.5 mph 19.6 mph N/A   Scattered Clouds
5:35 PM 84.2 °F 86.3 °F 65.8 °F 54% 29.87 in 10.0 mi SSE 12.7 mph 24.2 mph N/A   Scattered Clouds
5:55 PM 81.5 °F 83.6 °F 66.0 °F 59% 29.86 in 10.0 mi SSE 10.4 mph 17.3 mph N/A   Scattered Clouds
6:15 PM 82.6 °F 84.9 °F 66.4 °F 58% 29.85 in 10.0 mi SSE 10.4 mph 17.3 mph N/A   Scattered Clouds
6:35 PM 81.9 °F 84.1 °F 66.4 °F 59% 29.85 in 10.0 mi SSE 6.9 mph 17.3 mph N/A   Scattered Clouds
6:55 PM 80.8 °F 82.9 °F 66.2 °F 61% 29.86 in 10.0 mi South 12.7 mph 21.9 mph N/A   Mostly Cloudy
7:15 PM 80.8 °F 83.1 °F 66.6 °F 62% 29.85 in 10.0 mi SSE 11.5 mph 18.4 mph N/A   Mostly Cloudy
7:21 PM 80.6 °F 82.7 °F 66.2 °F 61% 29.85 in 10.0 mi SSE 12.7 mph 20.7 mph N/A   Scattered Clouds
7:35 PM 79.2 °F - 66.0 °F 64% 29.85 in 10.0 mi SSE 11.5 mph 18.4 mph N/A   Scattered Clouds
7:55 PM 78.1 °F - 66.2 °F 67% 29.85 in 10.0 mi South 11.5 mph 18.4 mph N/A   Clear
8:15 PM 76.8 °F - 66.2 °F 70% 29.84 in 10.0 mi SSE 9.2 mph 19.6 mph N/A   Clear
8:35 PM 75.6 °F - 66.6 °F 74% 29.85 in 10.0 mi SSE 8.1 mph - N/A   Clear
8:55 PM 75.0 °F - 66.9 °F 76% 29.84 in 10.0 mi SSE 6.9 mph - N/A   Scattered Clouds
9:15 PM 75.2 °F - 67.1 °F 76% 29.85 in 10.0 mi SSE 8.1 mph - N/A   Scattered Clouds
9:35 PM 75.2 °F - 67.1 °F 76% 29.86 in 10.0 mi SSE 9.2 mph - N/A   Mostly Cloudy
9:55 PM 74.7 °F - 67.1 °F 77% 29.87 in 10.0 mi SSE 10.4 mph 17.3 mph N/A   Mostly Cloudy
10:15 PM 74.3 °F - 67.1 °F 78% 29.87 in 10.0 mi SSE 8.1 mph - N/A   Mostly Cloudy
10:35 PM 73.9 °F - 67.1 °F 79% 29.86 in 10.0 mi SSE 11.5 mph - N/A   Overcast
10:55 PM 73.6 °F - 67.1 °F 80% 29.86 in 10.0 mi South 10.4 mph 17.3 mph N/A Thunderstorm Mostly Cloudy
11:15 PM 73.9 °F - 67.1 °F 79% 29.86 in 10.0 mi South 9.2 mph 20.7 mph N/A   Scattered Clouds
11:35 PM 73.2 °F - 66.2 °F 79% 29.85 in 10.0 mi South 9.2 mph 16.1 mph N/A   Mostly Cloudy
11:55 PM 72.3 °F - 66.4 °F 82% 29.84 in 10.0 mi South 9.2 mph 17.3 mph N/A   Overcast